Flag for Austria Weather past 2 weeks in Steyr, Upper Austria, Austria

Now
69 °F

Mild.


Feels Like: 69 °F
Forecast: 54 / 79 °F
Wind: 3 mph from Southwest

Location: Kremsmuenster

Current Time: Jul 24, 2014 at 11:41:40 PM

Latest Report: Jul 24, 2014 at 10:00 PM


Visibility: N/A

Pressure: 29.86 "Hg

Humidity: 62%

Dew point: 56 °F

Location of SteyrLocation

Historic Weather in Steyr — Graph

°F

Steyr temperature yesterday

Maximum temperature yesterday: 77 °F (at 5:00 PM)
Minimum temperature yesterday: 60 °F (at 11:00 PM)
Average temperature yesterday: 67 °F

Past Weeks' High & Low Weather Summary

 TemperatureHumidityPressure
High93 °F (Jul 20, 4:00 PM)95% (Jul 23, 3:00 AM)30.16 "Hg (Jul 23, 3:00 AM)
Low52 °F (Jul 10, 3:00 AM)33% (Jul 20, 4:00 PM)29.70 "Hg (Jul 20, 5:00 PM)
Average68 °F71%29.94 "Hg
* Reported Jul 9 10:00 PM — Jul 24 10:00 PM, Steyr, Weather by CustomWeather, © 2014

Note: Actual official high and low records may vary slightly from our data, if they occured in-between our weather recording intervals... More about our weather records

Advertising

Steyr weather history for previous 24 hours

 ConditionsComfort  
Time TempWeatherWind HumidityBarometerVisibility
10:00 PM
Jul 24
69 °FMild.3 mph62%29.86 "HgN/A
9:00 PM71 °FMild.2 mph57%29.84 "HgN/A
8:00 PM74 °FOvercast.No wind50%29.82 "Hg31 mi
7:00 PM77 °FPleasantly warm.1 mph38%29.80 "HgN/A
6:00 PM79 °FPleasantly warm.1 mph36%29.80 "HgN/A
5:00 PM78 °FScattered clouds.2 mph36%29.81 "Hg31 mi
4:00 PM78 °FPleasantly warm.2 mph36%29.83 "HgN/A
3:00 PM77 °FPleasantly warm.1 mph38%29.83 "HgN/A
2:00 PM76 °FMild.2 mph45%29.85 "HgN/A
1:00 PM73 °FMild.2 mph52%29.87 "HgN/A
12:00 PM71 °FMild.2 mph60%29.87 "HgN/A
11:00 AM69 °FScattered clouds.1 mph69%29.88 "Hg34 mi
10:00 AM65 °FMild.1 mph76%29.90 "HgN/A
9:00 AM62 °FCool.1 mph75%29.92 "HgN/A
8:00 AM58 °FPassing clouds.2 mph84%29.93 "Hg37 mi
7:00 AM55 °FOvercast.2 mph92%29.93 "HgN/A
6:00 AM54 °FCool.No wind92%29.94 "HgN/A
5:00 AM56 °FCool.5 mph87%29.92 "HgN/A
4:00 AM56 °FCool.3 mph88%29.93 "HgN/A
3:00 AM57 °FCool.3 mph89%29.93 "HgN/A
2:00 AM58 °FCool.3 mph87%29.95 "HgN/A
1:00 AM58 °FCool.No wind93%29.96 "HgN/A
12:00 AM58 °FCool.1 mph93%29.97 "HgN/A
11:00 PM
Jul 23
60 °FCool.No wind84%29.96 "HgN/A
Weather by CustomWeather, © 2014

See weather overviewHow to use our weather pages